Starlink 33851

operational
NORAD ID: 63683 Int'l Des: 2025-085 Owner: SPXS Country: US Constellation: starlink
LEOCIRCULAR

Über Starlink 33851

Beschreibung wird geladen...

Live-Position

3D-Globus wird geladen...

Nächste Überflüge

Höhenverlauf

Altitude vs Time

uPlot chart will show altitude changes over time

Zweizeiliger Elementsatz

1 63683U 25085V 25302.98542730 .00018073 00000-0 66420-3 0 9996
2 63683 43.0013 48.7817 0000825 270.6134 89.4623 15.27603164 28885
Epoch: 29. Okt. 2025 • Age: 28 hours

Aktueller Status

Höhe 484.5 km
Geschwindigkeit 7.62 km/s
Subsatellitenpunkt -10.63°S, 146.48°E
Startdatum 28. Apr. 2025
Alter 0.5 years
Typ internet

Technische Details

Klassifizierung Payload
Masse 575.00 kg
Trockenmasse 530.00 kg
Gesamtmasse 575.00 kg
Länge 0.30 m
Durchmesser 4.10 m
Spannweite 29.00 m
Form Box + pan
Hersteller SPXS
Bus-Typ Starlink V2MO
Phasenstatus In Orbit
Besitzer/Staat SPXS/US

Große Konstellationen

Loading constellations...